TimeHST,TemperatureF,Dew PointF,Humidity,Sea Level PressureIn,VisibilityMPH,Wind Direction,Wind SpeedMPH,Gust SpeedMPH,PrecipitationIn,Events,Conditions,WindDirDegrees,DateUTC
12:53 AM,73.9,66.9,79,30.01,10.0,NW,10.4,-,N/A,,Mostly Cloudy,320,2013-07-01 10:53:00
1:53 AM,70.0,61.0,73,29.99,10.0,WSW,4.6,-,N/A,,Mostly Cloudy,240,2013-07-01 11:53:00
2:53 AM,72.0,63.0,73,29.99,10.0,WSW,3.5,-,N/A,,Overcast,250,2013-07-01 12:53:00
3:34 AM,71.1,64.0,78,29.99,10.0,West,3.5,-,N/A,,Mostly Cloudy,270,2013-07-01 13:34:00
3:53 AM,71.1,64.0,78,29.99,10.0,Calm,Calm,-,N/A,,Overcast,0,2013-07-01 13:53:00
4:24 AM,73.0,66.0,79,29.99,10.0,NW,5.8,-,0.00,Rain,Light Rain,310,2013-07-01 14:24:00
4:53 AM,71.1,64.9,81,29.99,10.0,WSW,3.5,-,0.00,,Scattered Clouds,250,2013-07-01 14:53:00
5:25 AM,70.0,64.9,84,29.99,10.0,WSW,4.6,-,N/A,,Mostly Cloudy,240,2013-07-01 15:25:00
5:53 AM,69.1,64.0,84,30.00,10.0,SW,3.5,-,0.00,,Scattered Clouds,230,2013-07-01 15:53:00
6:53 AM,73.9,64.9,73,30.02,10.0,West,6.9,-,N/A,,Scattered Clouds,280,2013-07-01 16:53:00
7:53 AM,78.1,64.9,64,30.02,10.0,NW,5.8,-,N/A,,Scattered Clouds,320,2013-07-01 17:53:00
8:53 AM,80.1,62.1,54,30.02,10.0,NNE,8.1,-,N/A,,Overcast,20,2013-07-01 18:53:00
9:53 AM,82.0,64.0,54,30.02,10.0,NNE,9.2,-,N/A,,Scattered Clouds,20,2013-07-01 19:53:00
10:53 AM,81.0,66.0,60,30.01,10.0,North,9.2,-,N/A,,Scattered Clouds,360,2013-07-01 20:53:00
11:53 AM,82.9,64.9,54,30.00,10.0,NE,10.4,-,N/A,,Clear,50,2013-07-01 21:53:00
12:53 PM,84.0,66.9,56,29.99,10.0,ENE,11.5,-,N/A,,Partly Cloudy,60,2013-07-01 22:53:00
1:53 PM,84.9,66.9,55,29.98,10.0,NNE,10.4,-,N/A,,Scattered Clouds,30,2013-07-01 23:53:00
2:53 PM,82.9,68.0,60,29.97,10.0,North,13.8,-,N/A,,Scattered Clouds,360,2013-07-02 00:53:00
3:53 PM,81.0,66.0,60,29.96,10.0,NNE,11.5,-,N/A,,Scattered Clouds,30,2013-07-02 01:53:00
4:53 PM,80.1,68.0,67,29.97,10.0,North,13.8,-,0.00,Rain,Light Rain,10,2013-07-02 02:53:00
5:53 PM,78.1,68.0,71,29.98,10.0,North,6.9,-,0.00,,Overcast,10,2013-07-02 03:53:00
6:03 PM,75.0,68.0,79,29.98,6.0,North,11.5,-,0.00,Rain,Light Rain,10,2013-07-02 04:03:00
6:20 PM,73.9,66.9,79,29.98,9.0,North,8.1,-,0.00,Rain,Light Rain,350,2013-07-02 04:20:00
6:53 PM,75.9,68.0,76,29.98,10.0,North,6.9,-,0.00,,Overcast,360,2013-07-02 04:53:00
7:53 PM,73.9,68.0,82,29.99,10.0,North,6.9,-,0.00,Rain,Light Rain,360,2013-07-02 05:53:00
8:53 PM,73.9,66.9,79,29.99,10.0,NNW,4.6,-,0.00,,Overcast,340,2013-07-02 06:53:00
9:53 PM,77.0,66.0,69,29.99,10.0,North,11.5,-,N/A,,Overcast,350,2013-07-02 07:53:00
10:53 PM,73.9,64.9,73,29.99,10.0,NW,8.1,-,N/A,,Overcast,320,2013-07-02 08:53:00
11:53 PM,73.9,66.0,76,29.98,10.0,NNW,9.2,-,N/A,,Partly Cloudy,330,2013-07-02 09:53:00